SMILE

Last updated on Mon Sep 21 2026 00:03:33 GMT+0000 (Coordinated Universal Time)

1 69123U 26109A 26260.22617252 .00000590 00000+0 00000+0 0 9994 2 69123 70.0141 206.2461 8169204 285.7290 5.5729 0.47508927 381
UTC large
Height (km)
Speed (km/s)
/
Latitude / Longitude
Inclination (degrees)
Orbital Period (minutes)
Azimuth
Elevation
Range (km)
Doppler Factor

Next 0 passes for location: London (51.5072 / 0.1276)

No passes found over London.
SMILE